Date String (YYYY-MM-DD hh:mm:ss) UTC,Instrument flags,absolute air pressure of the measurement (hPa),sample flow rate (lpm),inlet stack bypass flow (lpm),air temperature of the measurement (°C),ambient temperature measured by the external sensor (°C),aerosol sample conditioner tube jacket temperature (°C),OPC LED temperature (°C),internal box temperature (°C),relative humidity of the measurement (%),span deviation,mass concentration of particles derived from Lorenz-Mie calculation of OPC scattering (μg/m³),mass concentration of particles derived from Lorenz-Mie calculation of OPC scattering (μg/m³),mass concentration of particles derived from Lorenz-Mie calculation of OPC scattering (μg/m³)
DateTimeUTC,F1_M11,P_M11,Q1_M11,Q2_M11,T1_M11,T2_M11,T3_M11,T4_M11,T5_M11,U1_M11,ZSPAN_M11,X0_M11,X2_M11,X1_M11
2023-06-12 15:00:00,SystemResetWarning,0830.4,4.99,000.00,029.6,028.2,000.0,038.1,031.2,31.6,0000.5,0009.42,0005.40,0004.94
2023-06-12 15:01:00,SystemResetWarning,0830.4,5.00,000.00,029.6,028.2,000.0,038.1,031.2,31.9,0000.4,0009.15,0005.36,0004.91
2023-06-12 15:02:00,SystemResetWarning,0830.4,5.01,000.00,029.6,028.2,000.0,038.1,031.2,31.4,0000.6,0009.12,0005.34,0004.89
2023-06-12 15:03:00,SystemResetWarning,0830.4,5.00,000.00,029.7,028.2,000.0,038.2,031.2,31.5,0000.8,0009.02,0005.29,0004.86
2023-06-12 15:04:00,SystemResetWarning,0830.4,5.00,000.00,029.7,028.2,000.0,038.2,031.2,31.7,0000.9,0008.99,0005.31,0004.87
2023-06-12 15:05:00,SystemResetWarning,0830.3,5.01,000.00,029.7,028.2,000.0,038.2,031.2,32.0,0000.9,0008.99,0005.32,0004.88
2023-06-12 15:06:00,SystemResetWarning,0830.3,4.99,000.00,029.7,028.2,000.0,038.2,031.3,31.6,0000.9,0008.95,0005.32,0004.88
2023-06-12 15:07:00,SystemResetWarning,0830.3,4.99,000.00,029.7,028.2,000.0,038.2,031.3,31.3,0001.2,0008.86,0005.27,0004.86
2023-06-12 15:08:00,SystemResetWarning,0830.3,5.01,000.00,029.7,028.2,000.0,038.2,031.3,30.7,0001.5,0009.09,0005.30,0004.87
2023-06-12 15:11:00,SystemResetWarning,0830.3,5.00,000.00,029.8,028.3,000.0,038.2,031.3,31.8,0001.8,0009.72,0005.27,0004.85
2023-06-12 15:12:00,SystemResetWarning,0830.2,4.99,000.00,029.8,028.3,000.0,038.2,031.3,31.6,0001.9,0009.66,0005.29,0004.88
2023-06-12 15:13:00,SystemResetWarning,0830.3,5.01,000.00,029.8,028.3,000.0,038.3,031.4,31.5,0001.8,0009.72,0005.34,0004.92
2023-06-12 15:14:00,SystemResetWarning,0830.2,5.00,000.00,029.8,028.3,000.0,038.3,031.4,31.8,0001.3,0010.03,0005.40,0004.95
2023-06-12 15:15:00,SystemResetWarning,0830.2,5.00,000.00,029.8,028.3,000.0,038.3,031.4,31.6,0001.1,0010.08,0005.39,0004.95
2023-06-12 15:16:00,SystemResetWarning,0830.3,4.99,000.00,029.8,028.3,000.0,038.3,031.4,31.0,0001.4,0010.29,0005.39,0004.96
2023-06-12 15:17:00,SystemResetWarning,0830.2,5.00,000.00,029.8,028.3,000.0,038.3,031.4,30.9,0001.7,0010.70,0005.40,0004.97
2023-06-12 15:18:00,SystemResetWarning,0830.2,5.00,000.00,029.8,028.4,000.0,038.3,031.4,31.4,0001.6,0010.77,0005.44,0004.99
2023-06-12 15:19:00,SystemResetWarning,0830.2,5.00,000.00,029.8,028.4,000.0,038.3,031.4,31.2,0001.5,0010.38,0005.41,0005.01
2023-06-12 15:20:00,SystemResetWarning,0830.2,5.01,000.00,029.9,028.4,000.0,038.3,031.4,31.3,0000.9,0010.36,0005.44,0005.05
2023-06-12 15:21:00,SystemResetWarning,0830.2,5.00,000.00,029.9,028.4,000.0,038.4,031.4,30.7,0000.9,0010.21,0005.47,0005.08
2023-06-12 15:22:00,SystemResetWarning,0830.2,5.01,000.00,029.9,028.4,000.0,038.4,031.4,30.7,0001.2,0009.39,0005.48,0005.09
2023-06-12 15:23:00,SystemResetWarning,0830.2,5.00,000.00,029.9,028.4,000.0,038.4,031.4,30.8,0001.4,0009.34,0005.49,0005.07
2023-06-12 15:24:00,SystemResetWarning,0830.2,5.00,000.00,029.9,028.4,000.0,038.4,031.4,30.9,0001.7,0009.33,0005.47,0005.04
2023-06-12 15:25:00,SystemResetWarning,0830.3,4.99,000.00,029.9,028.4,000.0,038.4,031.4,30.9,0001.9,0009.35,0005.47,0005.03
2023-06-12 15:26:00,SystemResetWarning,0830.2,4.99,000.00,029.9,028.4,000.0,038.4,031.4,30.7,0002.3,0009.29,0005.46,0005.03
2023-06-12 15:27:00,SystemResetWarning,0830.2,5.01,000.00,029.9,028.4,000.0,038.4,031.5,31.0,0002.2,0009.07,0005.45,0005.02
2023-06-12 15:28:00,SystemResetWarning,0830.3,5.01,000.00,029.9,028.4,000.0,038.4,031.5,30.8,0002.2,0008.63,0005.43,0005.00
2023-06-12 15:29:00,SystemResetWarning,0830.2,4.99,000.00,029.9,028.4,000.0,038.4,031.5,30.2,0002.1,0008.64,0005.43,0004.99
2023-06-12 15:30:00,SystemResetWarning,0830.2,4.99,000.00,030.0,028.4,000.0,038.4,031.5,30.1,0002.2,0008.62,0005.40,0004.96
2023-06-12 15:31:00,SystemResetWarning,0830.2,4.99,000.00,030.0,028.4,000.0,038.5,031.5,30.7,0002.7,0008.52,0005.35,0004.92
2023-06-12 15:32:00,SystemResetWarning,0830.2,5.00,000.00,030.0,028.4,000.0,038.5,031.5,30.5,0002.8,0008.38,0005.26,0004.87
2023-06-12 15:33:00,SystemResetWarning,0830.2,5.01,000.00,030.0,028.4,000.0,038.5,031.5,30.5,0002.7,0008.33,0005.23,0004.83
2023-06-12 15:34:00,SystemResetWarning,0830.3,5.00,000.00,030.0,028.4,000.0,038.5,031.5,30.6,0002.2,0008.20,0005.18,0004.81
2023-06-12 15:35:00,SystemResetWarning,0830.2,4.99,000.00,030.0,028.4,000.0,038.5,031.5,30.6,0001.9,0008.07,0005.11,0004.78
2023-06-12 15:36:00,SystemResetWarning,0830.2,5.00,000.00,030.0,028.5,000.0,038.5,031.5,30.4,0001.7,0007.79,0005.05,0004.74
2023-06-12 15:37:00,SystemResetWarning,0830.2,4.99,000.00,030.0,028.5,000.0,038.5,031.5,30.2,0001.0,0007.65,0005.00,0004.71
2023-06-12 15:38:00,SystemResetWarning,0830.2,5.00,000.00,030.0,028.5,000.0,038.5,031.5,30.1,0001.1,0007.61,0004.97,0004.69
2023-06-12 15:39:00,SystemResetWarning,0830.2,5.00,000.00,030.0,028.5,000.0,038.5,031.5,30.2,0001.1,0007.62,0004.94,0004.66
2023-06-12 15:40:00,SystemResetWarning,0830.1,5.00,000.00,030.0,028.4,000.0,038.5,031.5,30.1,0000.7,0007.61,0004.90,0004.63
2023-06-12 15:41:00,SystemResetWarning,0830.1,4.99,000.00,030.0,028.4,000.0,038.5,031.5,30.3,0000.7,0007.60,0004.89,0004.60
2023-06-12 15:42:00,SystemResetWarning,0830.1,5.00,000.00,030.0,028.4,000.0,038.5,031.5,30.7,0000.3,0007.66,0004.88,0004.56
2023-06-12 15:43:00,SystemResetWarning,0830.1,5.00,000.00,030.0,028.5,000.0,038.5,031.5,31.2,0000.1,0007.63,0004.84,0004.52
2023-06-12 15:44:00,SystemResetWarning,0830.0,5.01,000.00,030.0,028.5,000.0,038.5,031.5,30.3,0000.0,0007.52,0004.78,0004.51
2023-06-12 15:45:00,SystemResetWarning,0830.0,5.01,000.00,030.0,028.5,000.0,038.5,031.5,31.1,0000.4,0007.43,0004.71,0004.45
2023-06-12 15:46:00,SystemResetWarning,0830.0,4.99,000.00,030.0,028.5,000.0,038.5,031.5,30.8,0000.7,0007.41,0004.67,0004.41
2023-06-12 15:47:00,SystemResetWarning,0830.0,5.00,000.00,030.0,028.5,000.0,038.5,031.5,31.0,0000.8,0007.36,0004.64,0004.38
2023-06-12 15:48:00,SystemResetWarning,0830.0,5.01,000.00,030.0,028.5,000.0,038.5,031.5,30.3,0001.5,0007.33,0004.61,0004.35
2023-06-12 15:49:00,SystemResetWarning,0830.0,4.99,000.00,030.0,028.5,000.0,038.6,031.5,30.6,0001.7,0007.21,0004.56,0004.31
2023-06-12 15:50:00,SystemResetWarning,0830.0,5.00,000.00,030.0,028.5,000.0,038.6,031.5,30.6,0001.8,0007.22,0004.56,0004.31
2023-06-12 15:51:00,SystemResetWarning,0830.0,4.99,000.00,030.0,028.5,000.0,038.6,031.5,30.1,0002.3,0007.07,0004.56,0004.32
2023-06-12 15:52:00,SystemResetWarning,0830.0,5.01,000.00,030.0,028.5,000.0,038.6,031.6,31.1,0002.1,0007.05,0004.54,0004.32
2023-06-12 15:53:00,SystemResetWarning,0829.9,5.01,000.00,030.0,028.5,000.0,038.6,031.6,30.8,0002.3,0006.95,0004.54,0004.33
2023-06-12 15:54:00,SystemResetWarning,0829.9,5.00,000.00,030.0,028.5,000.0,038.6,031.6,31.0,0002.7,0007.27,0004.59,0004.36
2023-06-12 15:55:00,SystemResetWarning,0830.0,5.00,000.00,030.0,028.5,000.0,038.6,031.6,29.9,0003.0,0007.54,0004.62,0004.37
2023-06-12 15:56:00,SystemResetWarning,0829.9,4.99,000.00,030.0,028.6,000.0,038.6,031.6,29.8,0002.8,0007.61,0004.66,0004.40
2023-06-12 15:57:00,SystemResetWarning,0829.9,4.99,000.00,030.1,028.6,000.0,038.6,031.6,29.9,0002.6,0007.67,0004.69,0004.43
2023-06-12 15:58:00,SystemResetWarning,0829.8,5.01,000.00,030.1,028.6,000.0,038.6,031.6,29.3,0002.6,0007.73,0004.72,0004.45
2023-06-12 15:59:00,SystemResetWarning,0829.8,5.00,000.00,030.1,028.6,000.0,038.6,031.7,29.6,0002.4,0007.81,0004.76,0004.46
